Location: Tumbler Ridge
(55.1167°N, 121.0000°W)
Time: 07:38:55
(UTC-07:00)

Daily predictions for brighter satellites

Satellite Brightness Start Highest point End
(mag) Time Altitude Azimuth Time Altitude Azimuth Time Altitude Azimuth
Cosmos 1727 Rocket 4.2 21:54:00 10° N 22:00:08 59° ENE 22:06:14 10° SSE
Cosmos 1536 Rocket 3.9 21:56:49 10° N 22:01:16 56° ENE 22:05:41 10° SSE
Cosmos 2278 Rocket 2.3 21:58:01 10° SSW 22:03:37 62° ESE 22:09:15 10° NE
Cosmos 1844 Rocket 2.9 21:58:04 10° SW 22:03:44 80° NW 22:09:25 10° NNE
Cosmos 1908 Rocket 4.1 22:01:12 10° SSW 22:05:37 65° WNW 22:10:05 10° N
Cosmos 1844 3.8 22:03:28 10° SSW 22:09:16 89° ESE 22:15:08 10° NE
deb Chang Zheng 4 3.9 22:04:58 10° NNE 22:09:23 77° WNW 22:13:49 10° SSW
Cosmos 1812 3.3 22:06:56 10° N 22:10:41 45° ENE 22:14:25 10° SSE
USA 229 DEB 4.2 22:06:40 10° NW 22:13:36 60° SW 22:20:36 10° SSE
USA 229 4.2 22:06:45 10° NW 22:13:42 60° SW 22:20:43 10° SSE
Meteor 1-18 Rocket 4.4 22:08:40 10° NNW 22:14:36 77° ENE 22:20:33 10° SSE
Cosmos 2084 Rocket 4.0 22:11:34 10° NW 22:15:17 46° NNE 22:19:06 10° ESE
Cosmos 2082 Rocket 2.6 22:10:48 10° NW 22:16:26 60° WSW 22:22:01 10° SSE
Cosmos 2341 Rocket 4.2 22:12:43 10° SSW 22:19:02 78° WNW 22:25:19 10° N
NOSS 2-2 (D) 4.3 22:14:38 10° WSW 22:19:07 70° NW 22:24:49 10° NE
USA 245 4.1 22:20:46 10° S 22:24:24 55° W 22:29:00 10° NNW
Meteor 1-14 Rocket 4.2 22:21:49 10° S 22:27:25 70° E 22:32:58 10° NNE
SL-8 Rocket 4.0 22:22:36 10° S 22:28:52 82° E 22:35:07 10° NNE
NOSS 3-1 (A) 4.0 22:24:42 10° NW 22:31:55 83° NE 22:39:59 10° SE
H-2A R/B 4.3 22:31:02 10° SW 22:34:16 21° W 22:37:29 10° NW
IGS 5A 3.6 22:30:58 11° SSE 22:34:51 65° ENE 22:39:01 10° N
Cosmos 1025 Rocket 4.2 22:31:24 10° N 22:35:21 31° ENE 22:38:57 12° SE
CZ-4 R/B 3.9 22:31:40 10° NNE 22:36:20 59° ESE 22:40:55 10° S
Cosmos 2151 Rocket 3.6 22:32:16 10° S 22:36:46 69° E 22:41:18 10° NNE
Cosmos 2297 3.8 22:34:26 10° SSW 22:40:04 63° ESE 22:45:47 10° NE
APEX 3.9 22:43:29 10° SSW 22:47:55 78° ESE 22:53:48 10° NE
Cosmos 1420 Rocket 4.2 22:46:01 10° SSW 22:51:16 78° WNW 22:56:31 10° NNE
Cosmos 1300 Rocket 4.0 22:47:42 13° SSE 22:51:27 45° E 22:55:44 10° NNE
SL-8 R/B 4.3 22:48:24 10° WSW 22:52:51 38° S 22:57:06 11° ESE
Intercosmos 25 4.0 22:49:45 10° SSW 22:52:52 45° WNW 22:56:07 10° N
ATLAS 2AS CENTAUR R/B 3.5 22:44:48 10° NW 22:52:58 64° NNE 23:00:53 10° ESE
BREEZE-M TANK 4.2 22:43:04 10° W 22:53:18 33° SSW 22:56:11 15° SE
Cosmos 1354 Rocket 4.2 22:50:22 10° NNW 22:55:38 65° ENE 23:00:02 15° SE
Cosmos 1486 Rocket 4.1 22:50:30 10° NNW 22:55:52 81° WSW 23:00:23 15° SSE
ALOS 2 4.4 22:52:35 10° ESE 22:55:54 21° ENE 22:59:14 10° N
Okean 1 Rocket 3.6 22:53:00 14° SSE 22:56:35 45° E 23:00:52 10° NNE
CZ-4C R/B 4.0 22:53:00 11° S 22:56:51 56° W 23:01:03 10° NNW
Gbstr 26 Del rocket 4.2 22:53:35 10° W 22:58:11 32° SSW 23:01:02 16° SSE
NOSS 3-1 (C) 4.1 22:54:16 10° NW 23:01:29 71° SW 23:08:26 15° SSE
Okean 1-7 Rocket 3.6 22:58:07 10° NNW 23:02:40 89° E 23:06:19 15° S
CZ-4B R/B 3.7 22:57:53 10° NNE 23:02:54 72° WNW 23:07:44 10° SSW
Landsat 7 4.5 22:58:25 10° S 23:03:03 52° W 23:07:44 10° NNW
ISS -2.7 23:04:07 10° SW 23:07:07 34° SSE 23:10:06 10° E
Cosmos 1400 Rocket 4.0 23:06:01 17° SE 23:08:22 29° E 23:12:00 10° NNE
H-2A R/B 2.6 23:03:30 11° S 23:08:39 58° WSW 23:13:51 10° NNW
Cosmos 2366 rocket 4.3 23:03:45 10° SSW 23:10:03 75° WNW 23:16:28 10° N
Cosmos 1536 4.0 23:08:22 17° SE 23:10:31 27° E 23:13:55 10° NNE
Cosmos 1633 4.0 23:08:46 17° SE 23:10:32 24° E 23:13:35 10° NE
Cosmos 2369 Rocket 3.6 23:08:35 15° SE 23:11:18 21° ESE 23:15:25 10° NE
USA 234 4.1 23:05:53 10° ENE 23:11:18 27° SE 23:16:41 10° S
Meteor 1-23 Rocket 4.5 23:07:54 10° N 23:13:27 58° ENE 23:17:41 17° SE
Meteor 1-19 Rocket 4.3 23:10:44 10° NNW 23:16:39 82° ENE 23:21:15 17° SSE
Terra 2.4 23:14:34 12° S 23:18:46 51° W 23:23:27 10° NNW
Timation 1 Rocket 4.4 23:14:54 10° SSW 23:20:50 64° ESE 23:26:47 10° NE
Okean 1 4.4 23:22:49 10° NNW 23:26:38 39° W 23:30:04 12° SSW
Cosmos 1302 Rocket 4.3 23:27:10 16° S 23:31:09 50° ESE 23:36:16 10° NE
Meteor 1-20 Rocket 4.3 23:25:49 10° SSW 23:31:23 76° WNW 23:36:55 10° NNE
Spot 2 4.1 23:28:39 10° NNE 23:33:04 67° ESE 23:36:04 19° S
Cosmos 2084 4.2 23:30:53 10° WSW 23:34:37 48° NNW 23:38:26 10° NE
Cosmos 1833 Rocket 4.5 23:31:47 10° NW 23:36:01 22° WSW 23:40:15 10° SSW
Meteor 2-15 4.5 23:30:32 10° N 23:36:43 82° ENE 23:41:13 19° SSE
BREEZE-M DEB (TANK) 4.4 23:36:04 10° WSW 23:40:12 57° S 23:54:51 10° ESE
CZ-4C R/B 3.9 23:38:18 21° SE 23:40:28 42° ENE 23:43:59 10° N
Cosmos 1943 Rocket 3.9 23:41:12 14° ESE 23:43:15 17° E 23:46:40 10° ENE
Cosmos 44 Rocket 3.7 23:40:35 10° NW 23:45:47 68° NE 23:50:05 14° ESE
Lacrosse 5 2.7 23:43:14 19° S 23:45:51 30° SE 23:50:15 10° ENE
Cosmos 2278 Rocket 3.8 23:42:47 10° WSW 23:48:04 38° NW 23:53:23 10° NNE
Iridium 4 Rocket 3.9 23:44:27 10° N 23:50:20 82° W 23:54:46 19° S
Cosmos 1602 3.7 23:48:59 21° S 23:51:30 90° E 23:55:27 10° NNE
ASTEX 1 3.9 23:48:03 10° N 23:52:56 60° WNW 23:57:15 13° SSW
Cosmos 1892 Rocket 3.5 23:48:57 10° NNW 23:53:20 83° W 23:55:57 24° S
Cosmos 2084 Rocket 3.8 23:51:07 10° WNW 23:54:48 43° SW 23:56:30 26° S
